Weather History for Youngstown, OH

Change the Weather History Date:

Friday, May 31, 2013

  Actual Average Record
Temperature  
Mean Temperature 77 °F 62 °F  
Max Temperature 88 °F 73 °F 92 °F (1934)
Min Temperature 66 °F 51 °F 34 °F (2001)
Degree Days  
Heating Degree Days 0 5  
Month to date heating degree days 190 252  
Since 1 July heating degree days 6100 6280  
Cooling Degree Days 12 2  
Month to date cooling degree days 81 30  
Year to date cooling degree days 88 39  
Growing Degree Days 27 (Base 50)    
Moisture  
Dew Point 62 °F    
Average Humidity 67    
Maximum Humidity 93    
Minimum Humidity 40    
Precipitation  
Precipitation 0.06 in 0.13 in 1.93 in (1975)
Month to date precipitation 1.47 3.79  
Year to date precipitation 11.77 14.79  
Snow  
Snow 0.00 in 0.00 in - ()
Month to date snowfall T T  
Since 1 July snowfall 80.9 62.7  
Snow Depth 0.00 in    
Sea Level Pressure  
Sea Level Pressure 30.04 in    
Wind  
Wind Speed 9 mph (SSW)    
Max Wind Speed 24 mph    
Max Gust Speed 29 mph    
Visibility 10 miles    
Events Rain    
T = Trace of Precipitation, MM = Missing Value Source: NWS Daily Summary

Daily Weather History Graph

Daily Weather History Graph

Search for Another Location

Airport:

Trip Planner

Search our weather history database for the weather conditions in past years. The results will help you decide how hot, cold, wet, or windy it might be!

Date:

Astronomy

May. 31, 2013 Rise Set
Actual Time 5:52 AM EDT 8:48 PM EDT
Civil Twilight 5:19 AM EDT 9:21 PM EDT
Nautical Twilight 4:37 AM EDT 10:03 PM EDT
Astronomical Twilight 3:49 AM EDT 10:52 PM EDT
Moon 1:19 AM EDT (5/31) 1:09 PM EDT (5/31)
Length of Visible Light 16h 02m
Length of Day
14h 56m
Waning Gibbous, 51% of the Moon is Illuminated
May 31
Waning Gibbous
May 31
Last Quarter
Jun 8
New
Jun 16
First Quarter
Jun 23
Full

Hourly Weather History & Observations

Time (EDT) Temp. Heat Index Dew Point Humidity Pressure Visibility Wind Dir Wind Speed Gust Speed Precip Events Conditions
12:51 AM 72.0 °F - 62.1 °F 71% 30.08 in 10.0 mi South 4.6 mph - N/A   Scattered Clouds
1:51 AM 70.0 °F - 62.1 °F 76% 30.09 in 10.0 mi South 4.6 mph - N/A   Scattered Clouds
2:51 AM 69.1 °F - 61.0 °F 75% 30.08 in 10.0 mi SSE 5.8 mph - N/A   Partly Cloudy
3:51 AM 69.1 °F - 62.1 °F 78% 30.07 in 10.0 mi SSE 8.1 mph - N/A   Partly Cloudy
4:51 AM 69.1 °F - 62.1 °F 78% 30.07 in 10.0 mi South 6.9 mph - N/A   Partly Cloudy
5:51 AM 68.0 °F - 62.1 °F 81% 30.08 in 10.0 mi SSE 6.9 mph - N/A   Partly Cloudy
6:51 AM 68.0 °F - 62.1 °F 81% 30.09 in 9.0 mi SSE 6.9 mph - N/A   Partly Cloudy
7:51 AM 71.1 °F - 63.0 °F 75% 30.09 in 10.0 mi South 8.1 mph - N/A   Partly Cloudy
8:51 AM 75.0 °F - 63.0 °F 66% 30.09 in 10.0 mi SSW 8.1 mph - N/A   Partly Cloudy
9:51 AM 79.0 °F - 63.0 °F 58% 30.09 in 10.0 mi SW 11.5 mph - N/A   Partly Cloudy
10:51 AM 81.0 °F 82.2 °F 63.0 °F 54% 30.08 in 10.0 mi SSW 12.7 mph 18.4 mph N/A   Scattered Clouds
11:51 AM 82.9 °F 83.7 °F 62.1 °F 49% 30.07 in 10.0 mi SSW 11.5 mph 18.4 mph N/A   Scattered Clouds
12:51 PM 84.9 °F 85.4 °F 62.1 °F 46% 30.06 in 10.0 mi SW 12.7 mph 19.6 mph N/A   Mostly Cloudy
1:51 PM 86.0 °F 86.1 °F 61.0 °F 43% 30.04 in 10.0 mi South 10.4 mph 19.6 mph N/A   Mostly Cloudy
2:51 PM 86.0 °F 86.1 °F 61.0 °F 43% 30.00 in 10.0 mi South 10.4 mph 20.7 mph N/A   Mostly Cloudy
3:51 PM 87.1 °F 86.7 °F 60.1 °F 40% 29.97 in 10.0 mi SSW 11.5 mph 23.0 mph N/A   Mostly Cloudy
4:51 PM 87.1 °F 86.7 °F 60.1 °F 40% 29.96 in 10.0 mi SSW 13.8 mph 19.6 mph N/A   Mostly Cloudy
5:51 PM 84.9 °F 84.8 °F 60.1 °F 43% 29.96 in 10.0 mi SSW 10.4 mph - N/A   Mostly Cloudy
6:51 PM 82.9 °F 83.2 °F 60.1 °F 46% 29.96 in 10.0 mi SSW 6.9 mph - N/A   Overcast
7:51 PM 78.1 °F - 64.9 °F 64% 29.97 in 10.0 mi North 6.9 mph - N/A   Overcast
8:51 PM 72.0 °F - 64.0 °F 76% 30.00 in 10.0 mi NNW 9.2 mph - N/A   Overcast
9:51 PM 70.0 °F - 64.0 °F 81% 29.99 in 10.0 mi NNW 3.5 mph - 0.00 in Rain Light Rain
10:51 PM 70.0 °F - 64.0 °F 81% 30.02 in 10.0 mi WSW 11.5 mph 19.6 mph 0.00 in Rain Light Rain
11:51 PM 66.9 °F - 64.0 °F 90% 30.00 in 10.0 mi South 5.8 mph - 0.06 in Rain Light Rain